Oak Ridge, TN

8:04 PM EDT on May 25, 2017 (GMT -0400)
Oak Ridge

Weather History for KOQT - August, 2013

Change the Weather History Date:

Wednesday, August 7, 2013

  Actual Average (KTYS) Record (KTYS)
Temperature  
Mean Temperature 78 °F -  
Max Temperature 84 °F 86 °F 101 °F (1935)
Min Temperature 73 °F 67 °F 54 °F (2004)
Cooling Degree Days 12    
Growing Degree Days 28 (Base 50)    
Moisture  
Dew Point 72 °F    
Average Humidity 85    
Maximum Humidity 96    
Minimum Humidity 70    
Precipitation  
Precipitation 0.34 in - - ()
Sea Level Pressure  
Sea Level Pressure 30.00 in    
Wind  
Wind Speed 2 mph (SSW)    
Max Wind Speed 8 mph    
Max Gust Speed -    
Visibility 9 miles    
Events Fog , Rain    
Averages and records for this station are not official NWS values.
T = Trace of Precipitation, MM = Missing Value Source: NWS Daily Summary

Daily Weather History Graph

Daily Weather History Graph

Search for Another Location

Airport or City:

Trip Planner

Search our weather history database for the weather conditions in past years. The results will help you decide how hot, cold, wet, or windy it might be!

Date:

Astronomy

Aug. 07, 2013 Rise Set
Actual Time 6:49 AM EDT 8:35 PM EDT
Civil Twilight 6:21 AM EDT 9:03 PM EDT
Nautical Twilight 5:47 AM EDT 9:36 PM EDT
Astronomical Twilight 5:12 AM EDT 10:12 PM EDT
Moon 7:33 AM EDT (8/7) 8:46 PM EDT (8/7)
Length of Visible Light 14h 41m
Length of Day
13h 46m
New Moon, 1% of the Moon is Illuminated
Aug 7
New Moon
Aug 14
First Quarter
Aug 20
Full
Aug 28
Last Quarter
Sep 5
New

Hourly Weather History & Observations

Time (EDT) Temp. Heat Index Dew Point Humidity Pressure Visibility Wind Dir Wind Speed Gust Speed Precip Events Conditions
12:53 AM 75.9 °F - 72.0 °F 87% 29.97 in 10.0 mi Calm Calm - N/A   Scattered Clouds
1:53 AM 75.0 °F - 72.0 °F 90% 29.97 in 10.0 mi WSW 3.5 mph - 0.00 in Rain Light Rain
2:53 AM 75.0 °F - 72.0 °F 90% 29.96 in 10.0 mi Calm Calm - 0.00 in   Clear
3:53 AM 75.0 °F - 71.1 °F 87% 29.96 in 10.0 mi Calm Calm - N/A   Clear
4:53 AM 75.0 °F - 71.1 °F 87% 29.96 in 10.0 mi Calm Calm - N/A   Mostly Cloudy
5:02 AM 75.2 °F - 71.6 °F 89% 30.01 in 10.0 mi Calm Calm - N/A   Mostly Cloudy
5:53 AM 73.9 °F - 71.1 °F 91% 29.96 in 10.0 mi Calm Calm - N/A   Overcast
6:08 AM 73.4 °F - 71.6 °F 94% 30.00 in 10.0 mi Calm Calm - N/A   Scattered Clouds
6:53 AM 75.0 °F - 71.1 °F 87% 29.97 in 7.0 mi Calm Calm - N/A   Overcast
7:00 AM 75.2 °F - 71.6 °F 89% 30.02 in 8.0 mi Calm Calm - N/A   Overcast
7:35 AM 75.2 °F - 71.6 °F 89% 30.04 in 2.5 mi SSW 4.6 mph - 0.00 in Rain Light Rain
7:37 AM 73.4 °F - 71.6 °F 94% 30.04 in 0.8 mi SSW 3.5 mph - 0.00 in Rain Heavy Rain
7:49 AM 73.4 °F - 71.6 °F 94% 30.04 in 0.2 mi Calm Calm - 0.30 in Fog , Rain Heavy Rain
7:53 AM 73.0 °F - 72.0 °F 96% 30.00 in 0.5 mi SSW 3.5 mph - 0.34 in Fog , Rain Rain
7:58 AM 73.4 °F - 71.6 °F 94% 30.05 in 2.0 mi Calm Calm - 0.00 in Rain Light Rain
8:06 AM 73.4 °F - 71.6 °F 94% 30.04 in 6.0 mi Calm Calm - 0.00 in Rain Light Rain
8:26 AM 73.4 °F - 71.6 °F 94% 30.04 in 6.0 mi Calm Calm - 0.00 in   Overcast
8:53 AM 73.9 °F - 72.0 °F 93% 30.00 in 7.0 mi South 3.5 mph - 0.00 in   Overcast
9:13 AM 73.4 °F - 71.6 °F 94% 30.05 in 8.0 mi Variable 3.5 mph - N/A   Overcast
9:53 AM 73.9 °F - 72.0 °F 93% 30.01 in 10.0 mi South 5.8 mph - N/A   Overcast
10:20 AM 73.4 °F - 71.6 °F 94% 30.07 in 10.0 mi South 6.9 mph - N/A   Overcast
10:53 AM 75.0 °F - 71.1 °F 87% 30.03 in 10.0 mi Calm Calm - N/A   Overcast
11:29 AM 75.2 °F - 71.6 °F 89% 30.07 in 10.0 mi South 3.5 mph - N/A   Overcast
11:53 AM 77.0 °F - 72.0 °F 84% 30.02 in 10.0 mi Variable 3.5 mph - N/A   Overcast
12:20 PM 77.0 °F - 69.8 °F 78% 30.06 in 10.0 mi South 8.1 mph - N/A   Overcast
12:53 PM 78.1 °F - 71.1 °F 79% 30.01 in 10.0 mi South 5.8 mph - N/A   Overcast
1:53 PM 81.0 °F 85.2 °F 72.0 °F 74% 29.99 in 10.0 mi SSW 3.5 mph - N/A   Mostly Cloudy
2:00 PM 80.6 °F 84.6 °F 71.6 °F 74% 30.04 in 10.0 mi Variable 4.6 mph - N/A   Mostly Cloudy
2:53 PM 81.0 °F 85.2 °F 72.0 °F 74% 29.98 in 10.0 mi Variable 3.5 mph - N/A   Overcast
3:53 PM 82.0 °F 86.7 °F 72.0 °F 71% 29.95 in 10.0 mi Variable 3.5 mph - N/A   Overcast
4:05 PM 82.4 °F 88.2 °F 73.4 °F 74% 30.00 in 10.0 mi Calm Calm - N/A   Mostly Cloudy
4:53 PM 82.9 °F 88.8 °F 73.0 °F 72% 29.94 in 10.0 mi SSW 5.8 mph - 0.00 in   Partly Cloudy
5:05 PM 82.4 °F 88.2 °F 73.4 °F 74% 29.99 in 10.0 mi Calm Calm - N/A   Mostly Cloudy
5:53 PM 82.0 °F 86.7 °F 72.0 °F 71% 29.95 in 10.0 mi Variable 3.5 mph - N/A   Mostly Cloudy
6:09 PM 82.4 °F 87.2 °F 71.6 °F 70% 30.00 in 10.0 mi Variable 3.5 mph - N/A   Scattered Clouds
6:53 PM 81.0 °F 84.9 °F 71.1 °F 72% 29.94 in 10.0 mi WSW 4.6 mph - N/A   Partly Cloudy
7:53 PM 79.0 °F - 72.0 °F 79% 29.94 in 10.0 mi Calm Calm - N/A   Partly Cloudy
8:53 PM 78.1 °F - 72.0 °F 81% 29.95 in 10.0 mi Calm Calm - N/A   Clear
9:53 PM 77.0 °F - 73.0 °F 88% 29.96 in 10.0 mi SW 3.5 mph - N/A   Mostly Cloudy
10:01 PM 77.0 °F - 73.4 °F 89% 30.01 in 10.0 mi SW 3.5 mph - N/A   Mostly Cloudy
10:08 PM 77.0 °F - 73.4 °F 89% 30.02 in 10.0 mi SW 3.5 mph - N/A   Mostly Cloudy
10:53 PM 77.0 °F - 72.0 °F 84% 29.99 in 10.0 mi WSW 6.9 mph - N/A   Mostly Cloudy
11:53 PM 75.0 °F - 69.1 °F 82% 29.99 in 10.0 mi Variable 3.5 mph - N/A   Mostly Cloudy